Denver, CO

6:34 AM MDT on May 27, 2017 (GMT -0600)
Denver International

Weather History for KDEN - April, 2014

Change the Weather History Date:

Friday, April 18, 2014

  Actual Average Record
Temperature  
Mean Temperature 61 °F 48 °F  
Max Temperature 79 °F 62 °F 82 °F (1987)
Min Temperature 42 °F 34 °F 8 °F (1953)
Degree Days  
Heating Degree Days 4 17  
Month to date heating degree days 325 344  
Since 1 July heating degree days 5583 5546  
Cooling Degree Days 0 0  
Month to date cooling degree days 0 0  
Year to date cooling degree days 0 0  
Growing Degree Days 12 (Base 50)    
Moisture  
Dew Point 27 °F    
Average Humidity 38    
Maximum Humidity 62    
Minimum Humidity 13    
Precipitation  
Precipitation 0.00 in 0.07 in 1.54 in (1884)
Month to date precipitation 0.69 0.89  
Year to date precipitation 2.65 2.59  
Snow  
Snow 0.00 in - - ()
Month to date snowfall 5.6  
Since 1 July snowfall 37.3  
Snow Depth 0.00 in    
Sea Level Pressure  
Sea Level Pressure 29.79 in    
Wind  
Wind Speed 12 mph (South)    
Max Wind Speed 25 mph    
Max Gust Speed 30 mph    
Visibility 10 miles    
Events      
T = Trace of Precipitation, MM = Missing Value Source: NWS Daily Summary

Daily Weather History Graph

Daily Weather History Graph

Search for Another Location

Airport or City:

Trip Planner

Search our weather history database for the weather conditions in past years. The results will help you decide how hot, cold, wet, or windy it might be!

Date:

Astronomy

Apr. 18, 2014 Rise Set
Actual Time 6:16 AM MDT 7:40 PM MDT
Civil Twilight 5:48 AM MDT 8:08 PM MDT
Nautical Twilight 5:14 AM MDT 8:42 PM MDT
Astronomical Twilight 4:38 AM MDT 9:18 PM MDT
Moon 11:27 PM MDT (4/18) 8:41 AM MDT (4/18)
Length of Visible Light 14h 20m
Length of Day
13h 23m
Waning Gibbous, 86% of the Moon is Illuminated
Apr 18
Waning Gibbous
Apr 22
Last Quarter
Apr 29
New
May 6
First Quarter
May 14
Full

Hourly Weather History & Observations

Time (MDT) Temp. Windchill Dew Point Humidity Pressure Visibility Wind Dir Wind Speed Gust Speed Precip Events Conditions
12:53 AM 45.0 °F 38.5 °F 32.0 °F 60% 29.90 in 10.0 mi SSW 13.8 mph - N/A   Scattered Clouds
1:53 AM 46.9 °F - 30.9 °F 54% 29.88 in 10.0 mi SSW 16.1 mph - N/A   Mostly Cloudy
2:53 AM 43.0 °F 36.8 °F 30.0 °F 60% 29.87 in 10.0 mi SSW 11.5 mph - N/A   Mostly Cloudy
3:53 AM 46.0 °F 39.9 °F 28.9 °F 51% 29.87 in 10.0 mi SSW 13.8 mph - N/A   Partly Cloudy
4:53 AM 48.9 °F - 26.1 °F 41% 29.85 in 10.0 mi SSW 15.0 mph - N/A   Partly Cloudy
5:53 AM 48.9 °F - 25.0 °F 39% 29.85 in 10.0 mi SSW 16.1 mph - N/A   Mostly Cloudy
6:53 AM 46.9 °F - 27.0 °F 46% 29.88 in 10.0 mi South 12.7 mph - N/A   Mostly Cloudy
7:53 AM 54.0 °F - 28.0 °F 37% 29.89 in 10.0 mi South 13.8 mph - N/A   Mostly Cloudy
8:53 AM 64.0 °F - 28.9 °F 27% 29.86 in 10.0 mi SSW 11.5 mph - N/A   Scattered Clouds
9:53 AM 69.1 °F - 23.0 °F 18% 29.83 in 10.0 mi SE 6.9 mph - N/A   Mostly Cloudy
10:53 AM 71.1 °F - 24.1 °F 17% 29.82 in 10.0 mi SE 10.4 mph - N/A   Mostly Cloudy
11:53 AM 72.0 °F - 25.0 °F 17% 29.81 in 10.0 mi ESE 9.2 mph - N/A   Mostly Cloudy
12:53 PM 75.0 °F - 24.1 °F 15% 29.79 in 10.0 mi ESE 8.1 mph - N/A   Mostly Cloudy
1:53 PM 77.0 °F - 24.1 °F 14% 29.74 in 10.0 mi SE 15.0 mph 21.9 mph N/A   Mostly Cloudy
2:53 PM 77.0 °F - 23.0 °F 13% 29.73 in 10.0 mi SSE 6.9 mph - N/A   Mostly Cloudy
3:28 PM 77.0 °F - 26.1 °F 15% 29.87 in 10.0 mi SE 10.4 mph - N/A   Mostly Cloudy
3:53 PM 78.1 °F - 28.0 °F 16% 29.68 in 10.0 mi ESE 10.4 mph - N/A   Mostly Cloudy
4:53 PM 78.1 °F - 25.0 °F 14% 29.64 in 10.0 mi SE 11.5 mph - N/A   Mostly Cloudy
5:53 PM 73.9 °F - 27.0 °F 18% 29.65 in 10.0 mi NNW 21.9 mph 26.5 mph N/A   Mostly Cloudy
5:59 PM 73.9 °F - 27.0 °F 18% 29.83 in 10.0 mi NNW 20.7 mph 26.5 mph N/A   Mostly Cloudy
6:53 PM 72.0 °F - 26.1 °F 18% 29.68 in 10.0 mi NW 19.6 mph - N/A   Mostly Cloudy
7:53 PM 66.9 °F - 27.0 °F 22% 29.68 in 10.0 mi NNW 11.5 mph - N/A   Mostly Cloudy
8:53 PM 71.6 °F - 24.8 °F 17% 29.89 in 10.0 mi SE 5.8 mph - N/A   Mostly Cloudy
9:53 PM 63.0 °F - 28.9 °F 28% 29.70 in 10.0 mi South 6.9 mph - N/A   Mostly Cloudy
10:53 PM 61.0 °F - 30.0 °F 31% 29.70 in 10.0 mi WSW 4.6 mph - N/A   Scattered Clouds
11:53 PM 55.9 °F - 30.9 °F 39% 29.71 in 10.0 mi SSW 10.4 mph - N/A   Partly Cloudy